Location: Dumpton Point
(51.3500°N, 1.4433°E)
Time: 22:48:11
(UTC+00:00)

Vanguard 1 - Pass Details

Date: 26 September 2022
Orbit: 650 x 3831 km, 34.2° (Epoch: 03 December)

Event Time Altitude Azimuth Distance (km) Brightness Sun altitude
Rises 18:25:59 0° 249° (WSW) 4,593 14.7 -7.4°
Reaches altitude 10° 18:30:56 10° 229° (SW) 3,028 13.2 -8.2°
Maximum altitude 18:34:41 15° 196° (SSW) 2,272 12.0 -8.8°
Drops below altitude 10° 18:37:44 10° 161° (SSE) 2,354 11.7 -9.3°
Enters shadow 18:39:50 - 142° (SE) 2,794 12.0 -9.6°
Sets 18:40:49 0° 136° (SE) 3,071 - -9.7°
